Zurück zum Katalog

STARLINK-35193

AktivKommunikationVLEO
NORAD 65889·PAYLOAD·🇺🇸 United States

Gestartet Oct 7, 2025 von Cape Canaveral Space Force Station

Loading…

Nächste Überflüge (nächste 24 Stunden)

TLE

AktuellSource: CelesTrak SupGP

Epoche: Sep 15, 2026, 04:01 UTC

1 65889C 25224H   26258.16784722 -.00072638  00000+0 -21465-2 0  2586
2 65889  53.1580 210.4255 0001330  91.5595 343.8174 15.34420809    17

Verfolge STARLINK-35193 in Echtzeit mit AllMySat

Download on the App Store